Weather in Mahabad

Iran     36°45′48″N   45°43′28″E
temp.,
°C
wind,
m/s
gust,
m/s
humid.,
%
clouds,
%
prec.,
mm/h
press.,
hPa
HPBL,
m
17 april, sat
sat1701:30+9ssw225526 0.0 101916
04:30+7nne015952 0.0 101810
07:30+9ssw1157100 0.0 102010
10:30+16ne1230100 0.0 1019808
13:30+20nne122063 0.0 10172114
16:30+21n222087 0.0 10142680
19:30+17nne23350 0.0 101633
22:30+12sw12440 0.0 101810
18 april, sun
sun1801:30+12s33470 0.0 101813
04:30+11s334833 0.0 101813
07:30+11ssw22487 0.0 101913
10:30+19wsw112999 0.0 1017915
13:30+22wsw122191 0.0 10152508
16:30+23wsw2322100 0.0 10132823
19:30+18wsw2240100 0.0 101426
22:30+14ssw44504 0.0 101748
19 april, mon
mon1901:30+12ssw335298 0.0 101727
04:30+12ssw335397 0.0 101616
07:30+12sw115411 0.0 101710
10:30+19n453316 0.0 10171208
13:30+21n542999 0.0 10161551
16:30+22nne3328100 0.0 10141358
19:30+19nne1242100 0.0 101511
22:30+15wsw1146100 0.0 101611
20 april, tue
tue2001:30+14ssw224688 0.0 101611
04:30+12ssw115045 0.0 101511
07:30+15ssw3344100 0.0 101618
10:30+22ssw3430100 0.0 1015701
13:30+26wsw5619100 0.0 10123183
16:30+26w761890 0.0 10103740
19:30+21wsw483494 0.0 1012169
22:30+18ssw4435100 0.0 101444
21 april, wed
wed2101:30+17ssw3336100 0.0 101442
04:30+15ssw444097 0.0 101430
07:30+16s443996 0.0 101450
10:30+24sw692487 0.0 10132196
13:30+25sw9112295 0.0 10123322
16:30+25sw1012238 0.0 10122862
19:30+21ssw610355 0.0 1013362
22:30+16s56462 0.0 101480